Regional Weather Roundup
Issued by NWS

Home | Current Version | Previous Version | Text Only | Print | Product List | Glossary On
Versions: 1 2 3 4 5 6 7 8 9 10 11 12 13 14 15 16 17 18 19 20 21 22 23 24 25 26 27 28 29 30 31 32 33 34 35 36 37 38 39 40 41 42 43 44 45 46 47 48 49 50
000
ASUS44 KLIX 312006
RWRLA
LOUISIANA WEATHER ROUNDUP
NATIONAL WEATHER SERVICE NEW ORLEANS LA
300 PM CDT MON AUG 31 2015

NOTE: "FAIR" INDICATES FEW OR NO CLOUDS BELOW 12,000 FEET WITH NO
      SIGNIFICANT WEATHER AND/OR OBSTRUCTIONS TO VISIBILITY.
      SKY/WX - SKY CONDITION AND SIGNIFICANT WEATHER.
      TMP - AIR TEMPERATURE.    DP   - DEWPOINT TEMPERATURE.
      RH  - RELATIVE HUMIDITY.  PRES - PRESSURE.
      HX  - HEAT INDEX.         WCI  - WIND CHILL INDEX.

*  THESE STATIONS ARE NOT NWS OR FAA STATIONS AND ARE NOT UNDER
   NWS QUALITY CONTROL.

LAZ040-048-061>063-065-066-069-312100-
SOUTHEAST LOUISIANA

CITY           SKY/WX    TMP DP  RH WIND       PRES   REMARKS
N.O. AUDUBON     N/A    N/A N/A N/A MISG        N/A
N.O. INTL ARPT PTSUNNY   92  63  38 N5        30.03F
N.O. LAKEFRONT SUNNY     89  66  46 W5        30.04F
N.O. DOWNTOWN* FAIR      93  63  36 SE5       30.04F
RESERVE*       FAIR      91  65  42 E5        30.04F
SLIDELL        SUNNY     92  65  40 MISG      30.02F
BATON ROUGE    CLOUDY    88  67  49 E3        30.04F
BOOTHVILLE     SUNNY     88  70  55 NE7       30.06F
BELLE CHASSE   PTSUNNY   90  69  50 VRB7      30.03F
BOGALUSA*      NOT AVBL
GALLIANO*      PTCLDY    93  66  41 NE3       30.04F HX  96
NEW ROADS*     FAIR      87  68  53 SW3       30.05F
GONZALES*      FAIR      90  69  51 S3        30.03F
HAMMOND*       PTSUNNY   93  59  31 CALM      30.05S
HOUMA*         NOT AVBL
PORT FOURCHON* CLEAR     88  70  55 E9        30.05F

$$

LAZ041-044-053-054-312100-
SOUTHWEST LOUISIANA

CITY           SKY/WX    TMP DP  RH WIND       PRES   REMARKS
LAKE CHARLES   CLOUDY    85  74  69 E8        30.03F
LAFAYETTE        N/A    N/A N/A N/A MISG      30.05F
PATTERSON      CLOUDY    82  73  74 SW5       30.07S
SALT POINT       N/A     82  74  76 CALM      30.04F
NEW IBERIA     LGT RAIN  77  74  90 SE6       30.07F FOG
CHENAULT AIRPK   N/A     82  72  69 E10       30.04

$$

LAZ027-028-312100-
CENTRAL LOUISIANA

CITY           SKY/WX    TMP DP  RH WIND       PRES   REMARKS
FORT POLK      CLOUDY    88  64  45 VRB5      30.02F
ALEXANDRIA INT PTSUNNY   93  65  39 SE9       30.00F HX  95
ALEXANDRIA     PTSUNNY   94  67  41 VRB5      30.02F HX  97

$$

LAZ001-002-312100-
NORTHWEST LOUISIANA

CITY           SKY/WX    TMP DP  RH WIND       PRES   REMARKS
SHREVEPORT     SUNNY     92  62  36 CALM      30.01F
BARKSDALE AFB  MOSUNNY   93  61  34 VRB5      30.01F
DTN SHREVEPORT MOSUNNY   91  62  37 E3        30.01F

$$

LAZ014-016-312100-
NORTHEAST LOUISIANA

CITY           SKY/WX    TMP DP  RH WIND       PRES   REMARKS
MONROE         PTSUNNY   94  61  33 SE5       30.02F
TALLULAH       SUNNY     92  63  38 VRB6      30.03F

$$



USA.gov is the U.S. government's official web portal to all federal, state and local government web resources and services.